EA3ANS-1 Weather Reports


time (UTC)temp
F
wind
direction
speed
knots
gust
knots
rain 1hr
in
rain 24hr
in
rain mn
in
humidity
%
barometer
mb
20260510091918 66 217 4.3 7.8 0.00 0.33 0.01 1012.3
20260510090909 66 212 6.1 5.2 0.00 0.33 0.01 1012.3
20260510085859 65 245 5.2 7.0 0.00 0.33 0.01 1012.4
20260510084857 64 312 2.6 1.7 0.00 0.33 0.01 1012.4
20260510083858 63 172 2.6 1.7 0.00 0.33 0.01 1012.5
20260510082832 62 148 2.6 0.9 0.00 0.33 0.01 1012.6
20260510081826 62 311 1.7 2.6 0.00 0.33 0.01 1012.6
20260510080816 59 17 2.6 2.6 0.00 0.33 0.01 1012.6
20260510075759 59 328 4.3 3.5 0.00 0.33 0.01 1012.5
20260510074749 59 298 2.6 3.5 0.00 0.33 0.01 1012.5
20260510073743 59 288 3.5 3.5 0.00 0.33 0.01 1012.3
20260510072720 58 314 1.7 3.5 0.00 0.33 0.01 1012.4
20260510071723 57 333 4.3 3.5 0.00 0.33 0.01 1012.4
20260510070725 57 21 3.5 2.6 0.00 0.33 0.01 1012.5
20260510065653 56 307 3.5 4.3 0.00 0.33 0.01 1012.6
20260510064654 56 345 0.9 1.7 0.00 0.33 0.01 1012.5
20260510063646 55 353 4.3 2.6 0.00 0.33 0.01 1012.5
20260510062644 55 343 4.3 2.6 0.00 0.33 0.01 1012.5
20260510061645 55 297 4.3 4.3 0.00 0.33 0.01 1012.4
20260510060627 54 345 0.0 0.0 0.00 0.33 0.01 1012.2
20260510055628 53 345 0.0 0.0 0.00 0.33 0.01 1012.2
20260510054549 52 345 0.0 0.0 0.01 0.33 0.01 1012.3
20260510053550 52 345 0.0 0.0 0.01 0.33 0.01 1012.2
20260510052547 52 345 0.0 0.0 0.01 0.33 0.01 1012.0
20260510051549 51 345 0.0 0.0 0.01 0.33 0.01 1012.1
20260510050546 52 345 0.0 0.0 0.01 0.33 0.01 1012.3
20260510045546 52 345 0.0 0.0 0.01 0.33 0.01 1012.3
20260510044539 52 345 0.0 0.0 0.00 0.33 0.01 1012.2
20260510043521 52 345 0.0 0.0 0.00 0.33 0.01 1012.5
20260510042521 52 345 0.0 0.0 0.00 0.33 0.01 1012.5
20260510041524 52 345 0.0 0.0 0.00 0.33 0.00 1012.3
20260510040511 52 345 0.0 0.0 0.00 0.33 0.00 1012.4
20260510035503 53 345 0.0 0.0 0.00 0.33 0.00 1012.4
20260510034457 52 345 0.0 0.0 0.00 0.33 0.00 1012.4
20260510033453 52 345 0.0 0.0 0.00 0.33 0.00 1012.5
20260510032450 53 345 0.0 0.0 0.00 0.33 0.00 1012.4
20260510031445 53 345 0.0 0.0 0.00 0.33 0.00 1012.4
20260510030445 53 345 0.0 0.0 0.00 0.33 0.00 1012.4
20260510025448 53 345 0.0 0.0 0.00 0.33 0.00 1012.5
20260510024448 54 345 0.0 0.0 0.00 0.33 0.00 1012.6
20260510023450 53 345 0.0 0.0 0.00 0.33 0.00 1012.6
20260510022453 53 345 0.0 0.0 0.00 0.33 0.00 1012.8
20260510021436 54 345 0.0 0.0 0.00 0.33 0.00 1012.8
20260510020433 54 345 0.0 0.0 0.00 0.33 0.00 1012.8
20260510015431 55 345 0.0 0.0 0.00 0.33 0.00 1012.7
20260510014431 54 345 0.0 0.0 0.00 0.33 0.00 1012.7
20260510013432 54 302 0.0 0.0 0.00 0.33 0.00 1012.6
20260510012433 54 302 0.0 0.0 0.00 0.33 0.00 1012.4
20260510011435 55 304 0.0 0.0 0.00 0.33 0.00 1012.4
20260510010432 54 304 0.0 0.0 0.00 0.33 0.00 1012.5
20260510005426 54 311 0.0 0.0 0.00 0.33 0.00 1012.5
20260510004429 54 326 3.5 3.5 0.00 0.33 0.00 1012.7
20260510003431 55 38 0.0 0.0 0.00 0.33 0.00 1012.7
20260510002429 55 38 0.0 0.0 0.00 0.33 0.00 1012.8
20260510001432 55 38 0.0 0.0 0.00 0.33 0.00 1012.9
20260510000426 55 38 0.0 0.0 0.00 0.33 0.00 1012.9
20260509235415 55 38 0.0 0.0 0.00 0.33 0.00 1013.2
20260509234416 55 38 0.0 0.0 0.00 0.33 0.00 1013.4
20260509233417 55 38 0.0 0.0 0.00 0.33 0.00 1013.4
20260509232415 55 38 0.0 0.0 0.00 0.33 0.00 1013.3
20260509231417 55 38 0.0 0.0 0.00 0.33 0.00 1013.4
20260509230420 56 38 0.0 0.0 0.00 0.33 0.00 1013.3
20260509225416 56 38 0.0 0.0 0.00 0.33 0.00 1013.4
20260509224411 56 38 0.0 0.0 0.00 0.33 0.00 1013.4
20260509223414 57 38 0.0 0.0 0.00 0.33 0.00 1013.4
20260509222412 57 38 0.0 0.0 0.00 0.33 0.00 1013.4
20260509221409 57 84 0.0 0.0 0.00 0.33 0.00 1013.3
20260509220412 58 84 0.0 0.0 0.00 0.33 0.00 1013.3
20260509215410 58 304 0.0 0.0 0.00 0.00 0.33 1013.3
20260509214413 58 304 0.0 0.0 0.00 0.00 0.33 1013.3
20260509213347 58 304 0.0 0.0 0.00 0.00 0.33 1013.4
20260509212347 58 304 0.0 0.0 0.00 0.00 0.33 1013.2
20260509211339 58 319 0.9 0.0 0.00 0.00 0.33 1013.2
20260509210340 58 290 0.0 0.0 0.00 0.00 0.33 1013.2
20260509205338 57 290 0.0 0.0 0.00 0.00 0.33 1012.9
20260509204323 57 291 1.7 0.9 0.00 0.00 0.33 1012.9
20260509203325 57 342 0.0 0.0 0.00 0.00 0.33 1012.7
20260509202322 58 304 1.7 1.7 0.00 0.00 0.33 1012.5
20260509201312 57 252 1.7 1.7 0.00 0.00 0.33 1012.4
20260509194314 58 66 0.9 0.9 0.00 0.00 0.33 1011.7
20260509193313 58 25 0.0 0.0 0.00 0.00 0.33 1011.7
20260509192315 58 25 0.0 0.0 0.00 0.00 0.33 1011.6
20260509191259 58 25 0.0 0.0 0.00 0.00 0.33 1011.5
20260509190246 58 82 1.7 0.9 0.00 0.00 0.33 1011.3
20260509185249 58 129 2.6 0.9 0.03 0.00 0.33 1011.2
20260509184243 58 159 2.6 4.3 0.03 0.00 0.33 1011.0
20260509183243 58 141 2.6 3.5 0.03 0.00 0.33 1010.5
20260509182231 59 24 0.0 0.0 0.03 0.00 0.33 1010.3
20260509181149 58 24 1.7 0.0 0.03 0.00 0.33 1010.1
20260509175040 59 79 1.7 1.7 0.13 0.00 0.33 1010.1
20260509173936 58 35 6.1 1.7 0.13 0.00 0.33 1009.9
20260509172510 58 359 5.2 6.1 0.13 0.00 0.33 1009.6
20260509171443 58 15 2.6 3.5 0.13 0.00 0.32 1009.7
20260509170444 58 318 3.5 5.2 0.13 0.00 0.31 1010.1
20260509165443 58 343 2.6 2.6 0.14 0.00 0.30 1010.8
20260509164434 58 330 0.0 0.0 0.14 0.00 0.28 1011.3
20260509163419 58 350 2.6 4.3 0.14 0.00 0.26 1011.7
20260509162422 59 6 2.6 3.5 0.14 0.00 0.23 1012.0
20260509161416 59 53 2.6 1.7 0.14 0.00 0.21 1012.4
20260509160419 58 207 0.0 0.0 0.14 0.00 0.20 1012.7
20260509155419 58 228 2.6 0.9 0.03 0.00 0.17 1012.7
20260509154416 58 193 5.2 1.7 0.03 0.00 0.14 1012.6
20260509153419 59 231 5.2 3.5 0.03 0.00 0.12 1012.7
20260509152358 59 239 6.1 7.8 0.03 0.00 0.08 1012.6
20260509151356 60 236 7.8 7.8 0.03 0.00 0.06 1011.5
20260509150318 61 136 1.7 0.0 0.03 0.00 0.04 1010.2
20260509145259 61 72 2.6 6.1 0.00 0.00 0.03 1010.0
20260509144258 60 117 2.6 1.7 0.00 0.00 0.03 1010.0
20260509143237 61 76 0.9 3.5 0.00 0.00 0.03 1010.3
20260509142227 61 96 3.5 2.6 0.00 0.00 0.02 1010.5
20260509141155 62 89 3.5 3.5 0.00 0.00 0.00 1010.9
20260509140146 64 122 6.1 5.2 0.00 0.00 0.00 1011.2
20260509135148 65 138 4.3 4.3 0.00 0.00 0.00 1011.6
20260509134151 65 188 4.3 3.5 0.00 0.00 0.00 1011.6
20260509133146 66 131 6.1 2.6 0.00 0.00 0.00 1012.0
20260509132149 66 159 3.5 3.5 0.00 0.00 0.00 1011.9
20260509131129 66 56 3.5 1.7 0.00 0.00 0.00 1011.8
20260509130111 66 172 0.0 0.0 0.00 0.00 0.00 1011.4
20260509125111 67 48 6.1 5.2 0.00 0.00 0.00 1011.3
20260509124113 66 333 0.9 1.7 0.00 0.00 0.00 1011.2
20260509123113 66 63 6.1 9.6 0.00 0.00 0.00 1011.0
20260509122116 66 118 2.6 2.6 0.00 0.00 0.00 1011.3
20260509121118 66 135 5.2 5.2 0.00 0.00 0.00 1011.9
20260509120119 66 117 7.0 7.0 0.00 0.00 0.00 1012.2
20260509115055 66 121 4.3 4.3 0.00 0.00 0.00 1012.6
20260509114057 66 149 5.2 6.1 0.00 0.00 0.00 1012.7
20260509113043 66 155 4.3 9.6 0.00 0.00 0.00 1012.9
20260509112043 66 162 5.2 1.7 0.00 0.00 0.00 1012.9
20260509111028 66 77 5.2 7.8 0.00 0.00 0.00 1012.9
20260509110016 65 181 7.8 8.7 0.00 0.00 0.00 1012.8
20260509105000 65 152 5.2 3.5 0.00 0.00 0.00 1012.9
20260509103932 66 118 5.2 5.2 0.00 0.00 0.00 1012.9
20260509102926 66 186 4.3 4.3 0.00 0.00 0.00 1013.1
20260509101928 66 129 4.3 6.1 0.00 0.00 0.00 1013.0
20260509100912 67 108 5.2 4.3 0.00 0.00 0.00 1012.8
20260509095910 67 39 3.5 1.7 0.00 0.00 0.00 1013.1
20260509094902 67 103 3.5 1.7 0.00 0.00 0.00 1012.9
20260509093900 66 121 7.8 4.3 0.00 0.00 0.00 1012.9
20260509092843 66 37 6.1 3.5 0.00 0.00 0.00 1012.0